FJI911 NFFN-YSSY

Flight info

Callsign FJI911
Flight time 4h 29m
Altitude 40000
Route TEPEK A579 UBLIN DCT LHI DCT SOTKI DCT PEBTU DCT NONID N774 MARLN
Aircraft A359/H-SDE2E3GHIJ1J3J4J5LM1ORWXY/LB1D1

Departure

Time 2026-05-08 21:18
Airport Nadi International Airport (NFFN)

Arrival

Time 2026-05-09 01:47
Airport Sydney Kingsford Smith International Airport (YSSY)
Time Latitude Longitude Altitude Speed Heading
2026-05-08 21:02 -17.75253 177.44986 53 ft 0 kts 104°
2026-05-08 21:08 -17.75253 177.44985 53 ft 2 kts 104°
2026-05-08 21:08 -17.75248 177.44962 51 ft 3 kts 103°
2026-05-08 21:08 -17.75247 177.44937 49 ft 4 kts 60°
2026-05-08 21:09 -17.75265 177.44920 47 ft 4 kts 18°
2026-05-08 21:09 -17.75284 177.44914 47 ft 0 kts 14°
2026-05-08 21:13 -17.75271 177.44918 48 ft 5 kts 14°
2026-05-08 21:13 -17.75182 177.44941 51 ft 21 kts 14°
2026-05-08 21:13 -17.75066 177.44960 49 ft 15 kts 339°
2026-05-08 21:14 -17.75033 177.44889 49 ft 11 kts 283°
2026-05-08 21:14 -17.75013 177.44804 48 ft 13 kts 284°
2026-05-08 21:14 -17.75012 177.44731 49 ft 9 kts 239°
2026-05-08 21:14 -17.75049 177.44696 46 ft 0 kts 216°
2026-05-08 21:17 -17.75067 177.44682 49 ft 17 kts 216°
2026-05-08 21:17 -17.75372 177.44440 46 ft 90 kts 218°
2026-05-08 21:17 -17.76041 177.43899 51 ft 150 kts 217°
2026-05-08 21:18 -17.76923 177.43158 579 ft 156 kts 217°
2026-05-08 21:18 -17.77745 177.42457 1251 ft 155 kts 215°
2026-05-08 21:18 -17.78625 177.41756 1754 ft 165 kts 213°
2026-05-08 21:18 -17.79606 177.40986 2059 ft 188 kts 214°
2026-05-08 21:19 -17.80717 177.40100 2349 ft 214 kts 215°
2026-05-08 21:19 -17.81965 177.39092 2708 ft 238 kts 216°
2026-05-08 21:19 -17.83315 177.37993 3287 ft 251 kts 217°
2026-05-08 21:19 -17.84707 177.36858 3990 ft 257 kts 218°
2026-05-08 21:20 -17.86129 177.35698 4733 ft 261 kts 220°
2026-05-08 21:20 -17.87552 177.34535 5456 ft 265 kts 219°
2026-05-08 21:20 -17.89013 177.33334 6223 ft 267 kts 220°
2026-05-08 21:20 -17.90347 177.31962 6941 ft 270 kts 230°
2026-05-08 21:21 -17.91523 177.30412 7661 ft 273 kts 234°
2026-05-08 21:21 -17.92629 177.28759 8296 ft 280 kts 236°
2026-05-08 21:21 -17.93715 177.27037 8997 ft 284 kts 237°
2026-05-08 21:21 -17.94804 177.25286 9757 ft 287 kts 236°
2026-05-08 21:22 -17.95915 177.23511 10305 ft 298 kts 236°
2026-05-08 21:22 -17.97100 177.21646 10595 ft 316 kts 236°
2026-05-08 21:22 -17.98344 177.19712 10876 ft 332 kts 235°
2026-05-08 21:22 -17.99677 177.17657 11153 ft 348 kts 235°
2026-05-08 21:23 -18.01069 177.15521 11497 ft 359 kts 235°
2026-05-08 21:23 -18.02492 177.13338 12021 ft 364 kts 235°
2026-05-08 21:23 -18.03932 177.11129 12540 ft 369 kts 235°
2026-05-08 21:23 -18.05388 177.08893 13127 ft 372 kts 235°
2026-05-08 21:24 -18.06853 177.06640 13692 ft 375 kts 236°
2026-05-08 21:24 -18.08332 177.04364 14202 ft 379 kts 235°
2026-05-08 21:24 -18.09821 177.02072 14726 ft 381 kts 235°
2026-05-08 21:24 -18.11302 176.99791 15201 ft 384 kts 235°
2026-05-08 21:25 -18.12813 176.97463 15748 ft 386 kts 235°
2026-05-08 21:25 -18.14334 176.95118 16197 ft 390 kts 235°
2026-05-08 21:25 -18.15866 176.92757 16706 ft 393 kts 234°
2026-05-08 21:25 -18.17410 176.90376 17195 ft 396 kts 235°
2026-05-08 21:26 -18.18967 176.87974 17690 ft 398 kts 234°
2026-05-08 21:26 -18.20533 176.85557 18192 ft 401 kts 234°
2026-05-08 21:26 -18.22112 176.83119 18611 ft 404 kts 234°
2026-05-08 21:26 -18.23694 176.80675 19121 ft 405 kts 235°
2026-05-08 21:27 -18.25261 176.78254 19548 ft 407 kts 234°
2026-05-08 21:27 -18.26855 176.75790 20046 ft 408 kts 234°
2026-05-08 21:27 -18.28459 176.73310 20503 ft 411 kts 234°
2026-05-08 21:27 -18.30066 176.70824 20995 ft 412 kts 234°
2026-05-08 21:28 -18.31683 176.68322 21465 ft 415 kts 234°
2026-05-08 21:28 -18.33310 176.65802 21952 ft 417 kts 234°
2026-05-08 21:28 -18.34941 176.63276 22459 ft 418 kts 234°
2026-05-08 21:28 -18.36582 176.60734 22955 ft 420 kts 234°
2026-05-08 21:29 -18.38206 176.58217 23440 ft 422 kts 234°
2026-05-08 21:29 -18.39857 176.55656 23892 ft 424 kts 235°
2026-05-08 21:29 -18.41517 176.53083 24332 ft 425 kts 235°
2026-05-08 21:29 -18.43178 176.50507 24826 ft 425 kts 235°
2026-05-08 21:30 -18.44839 176.47928 25340 ft 426 kts 235°
2026-05-08 21:30 -18.46502 176.45343 25866 ft 426 kts 235°
2026-05-08 21:30 -18.48165 176.42758 26380 ft 427 kts 235°
2026-05-08 21:30 -18.49835 176.40161 26889 ft 428 kts 235°
2026-05-08 21:31 -18.51485 176.37596 27384 ft 430 kts 235°
2026-05-08 21:31 -18.53164 176.34984 27882 ft 431 kts 236°
2026-05-08 21:31 -18.54845 176.32367 28374 ft 432 kts 236°
2026-05-08 21:31 -18.56532 176.29740 28857 ft 433 kts 236°
2026-05-08 21:32 -18.58224 176.27105 29321 ft 435 kts 236°
2026-05-08 21:32 -18.59923 176.24458 29790 ft 436 kts 236°
2026-05-08 21:32 -18.61624 176.21805 30215 ft 438 kts 236°
2026-05-08 21:32 -18.63335 176.19137 30554 ft 440 kts 236°
2026-05-08 21:33 -18.65030 176.16494 30865 ft 442 kts 236°
2026-05-08 21:33 -18.66755 176.13802 31192 ft 444 kts 236°
2026-05-08 21:33 -18.68484 176.11101 31517 ft 446 kts 236°
2026-05-08 21:33 -18.70224 176.08384 31814 ft 448 kts 236°
2026-05-08 21:34 -18.72011 176.05687 32100 ft 449 kts 233°
2026-05-08 21:34 -18.73955 176.03096 32399 ft 451 kts 232°
2026-05-08 21:34 -18.75931 176.00528 32741 ft 451 kts 231°
2026-05-08 21:34 -18.77928 175.97969 33013 ft 453 kts 231°
2026-05-08 21:35 -18.79916 175.95439 33310 ft 453 kts 231°
2026-05-08 21:35 -18.81926 175.92885 33721 ft 451 kts 231°
2026-05-08 21:35 -18.83928 175.90342 34103 ft 450 kts 231°
2026-05-08 21:35 -18.85922 175.87804 34389 ft 450 kts 231°
2026-05-08 21:36 -18.87920 175.85257 34620 ft 450 kts 231°
2026-05-08 21:36 -18.89918 175.82706 34857 ft 451 kts 231°
2026-05-08 21:36 -18.91916 175.80153 35107 ft 451 kts 232°
2026-05-08 21:36 -18.93919 175.77592 35336 ft 452 kts 232°
2026-05-08 21:37 -18.95924 175.75027 35574 ft 453 kts 232°
2026-05-08 21:37 -18.97928 175.72463 35819 ft 453 kts 232°
2026-05-08 21:37 -18.99904 175.69933 36055 ft 453 kts 232°
2026-05-08 21:37 -19.01911 175.67363 36291 ft 453 kts 232°
2026-05-08 21:38 -19.03920 175.64790 36517 ft 454 kts 232°
2026-05-08 21:38 -19.05927 175.62217 36739 ft 454 kts 232°
2026-05-08 21:38 -19.07936 175.59642 37021 ft 453 kts 232°
2026-05-08 21:38 -19.09934 175.57079 37333 ft 452 kts 232°
2026-05-08 21:39 -19.11933 175.54514 37536 ft 452 kts 233°
2026-05-08 21:39 -19.13933 175.51946 37743 ft 453 kts 233°
2026-05-08 21:39 -19.15936 175.49374 37932 ft 453 kts 233°
2026-05-08 21:39 -19.17911 175.46835 38138 ft 453 kts 233°
2026-05-08 21:40 -19.19916 175.44258 38333 ft 454 kts 233°
2026-05-08 21:40 -19.21920 175.41681 38534 ft 454 kts 233°
2026-05-08 21:40 -19.23925 175.39102 38730 ft 454 kts 233°
2026-05-08 21:41 -19.27928 175.33951 39102 ft 452 kts 233°
2026-05-08 21:41 -19.29900 175.31411 39299 ft 451 kts 233°
2026-05-08 21:41 -19.31889 175.28848 39490 ft 450 kts 233°
2026-05-08 21:41 -19.33874 175.26289 39654 ft 450 kts 233°
2026-05-08 21:42 -19.35858 175.23730 39827 ft 449 kts 233°
2026-05-08 21:42 -19.37838 175.21176 39984 ft 448 kts 233°
2026-05-08 21:42 -19.41793 175.16070 40045 ft 446 kts 233°
2026-05-08 21:43 -19.45713 175.11005 40046 ft 444 kts 233°
2026-05-08 21:43 -19.49595 175.05984 40048 ft 443 kts 233°
2026-05-08 21:44 -19.53500 175.00928 40049 ft 443 kts 233°
2026-05-08 21:44 -19.57403 174.95872 40047 ft 443 kts 233°
2026-05-08 21:45 -19.61306 174.90812 40051 ft 443 kts 233°
2026-05-08 21:45 -19.65205 174.85753 40051 ft 443 kts 233°
2026-05-08 21:46 -19.69078 174.80723 40049 ft 443 kts 233°
2026-05-08 21:46 -19.72974 174.75659 40063 ft 443 kts 233°
2026-05-08 21:47 -19.76855 174.70612 40047 ft 440 kts 233°
2026-05-08 21:47 -19.80722 174.65577 40047 ft 440 kts 233°
2026-05-08 21:48 -19.84559 174.60576 40048 ft 440 kts 233°
2026-05-08 21:48 -19.88424 174.55535 40047 ft 440 kts 233°
2026-05-08 21:49 -19.92284 174.50496 40048 ft 440 kts 233°
2026-05-08 21:49 -19.96144 174.45453 40047 ft 440 kts 233°
2026-05-08 21:50 -19.99977 174.40442 40050 ft 440 kts 233°
2026-05-08 21:50 -20.03835 174.35393 40050 ft 440 kts 233°
2026-05-08 21:51 -20.07683 174.30354 40047 ft 437 kts 233°
2026-05-08 21:51 -20.11506 174.25344 40047 ft 435 kts 233°
2026-05-08 21:52 -20.15290 174.20378 40048 ft 435 kts 234°
2026-05-08 21:52 -20.19100 174.15374 40048 ft 435 kts 234°
2026-05-08 21:53 -20.22909 174.10368 40048 ft 435 kts 234°
2026-05-08 21:53 -20.26713 174.05363 40048 ft 435 kts 234°
2026-05-08 21:54 -20.30495 174.00385 40048 ft 435 kts 234°
2026-05-08 21:54 -20.34299 173.95372 40048 ft 435 kts 234°
2026-05-08 21:55 -20.38099 173.90360 40056 ft 434 kts 234°
2026-05-08 21:56 -20.43764 173.82883 40046 ft 431 kts 234°
2026-05-08 21:56 -20.47499 173.77945 40047 ft 431 kts 234°
2026-05-08 21:57 -20.51260 173.72969 40047 ft 431 kts 234°
2026-05-08 21:57 -20.55019 173.67991 40048 ft 431 kts 234°
2026-05-08 21:58 -20.58779 173.63009 40047 ft 431 kts 234°
2026-05-08 21:58 -20.62508 173.58063 40047 ft 431 kts 234°
2026-05-08 21:59 -20.66264 173.53078 40044 ft 431 kts 234°
2026-05-08 21:59 -20.70018 173.48089 40055 ft 430 kts 234°
2026-05-08 22:00 -20.73753 173.43124 40048 ft 428 kts 234°
2026-05-08 22:00 -20.77452 173.38201 40050 ft 427 kts 234°
2026-05-08 22:01 -20.81172 173.33245 40049 ft 427 kts 234°
2026-05-08 22:01 -20.84889 173.28288 40048 ft 428 kts 234°
2026-05-08 22:02 -20.88608 173.23325 40047 ft 428 kts 234°
2026-05-08 22:02 -20.92302 173.18391 40047 ft 428 kts 234°
2026-05-08 22:03 -20.96018 173.13424 40049 ft 428 kts 235°
2026-05-08 22:03 -20.99736 173.08449 40048 ft 428 kts 235°
2026-05-08 22:04 -21.03448 173.03480 40047 ft 426 kts 235°
2026-05-08 22:04 -21.07121 172.98557 40048 ft 426 kts 235°
2026-05-08 22:05 -21.10813 172.93603 40048 ft 426 kts 235°
2026-05-08 22:05 -21.14504 172.88647 40050 ft 426 kts 235°
2026-05-08 22:06 -21.18194 172.83687 40047 ft 426 kts 235°
2026-05-08 22:06 -21.21859 172.78757 40045 ft 426 kts 235°
2026-05-08 22:07 -21.25546 172.73794 40050 ft 426 kts 235°
2026-05-08 22:07 -21.29232 172.68827 40048 ft 426 kts 235°
2026-05-08 22:08 -21.32917 172.63857 40048 ft 426 kts 235°
2026-05-08 22:08 -21.36573 172.58921 40048 ft 426 kts 235°
2026-05-08 22:09 -21.40254 172.53948 40047 ft 426 kts 235°
2026-05-08 22:09 -21.43934 172.48972 40048 ft 426 kts 235°
2026-05-08 22:10 -21.47611 172.43994 40048 ft 426 kts 235°
2026-05-08 22:10 -21.51263 172.39047 40047 ft 425 kts 236°
2026-05-08 22:11 -21.54934 172.34069 40046 ft 425 kts 236°
2026-05-08 22:11 -21.58599 172.29095 40043 ft 425 kts 236°
2026-05-08 22:12 -21.62262 172.24118 40057 ft 424 kts 236°
2026-05-08 22:12 -21.65884 172.19195 40045 ft 422 kts 236°
2026-05-08 22:13 -21.69519 172.14247 40044 ft 421 kts 236°
2026-05-08 22:13 -21.73150 172.09300 40045 ft 421 kts 236°
2026-05-08 22:14 -21.76780 172.04350 40049 ft 421 kts 236°
2026-05-08 22:14 -21.80386 171.99428 40046 ft 422 kts 236°
2026-05-08 22:15 -21.84022 171.94462 40046 ft 422 kts 236°
2026-05-08 22:15 -21.87658 171.89492 40051 ft 422 kts 236°
2026-05-08 22:16 -21.91291 171.84520 40046 ft 422 kts 236°
2026-05-08 22:16 -21.94897 171.79582 40053 ft 421 kts 236°
2026-05-08 22:17 -21.98506 171.74636 40045 ft 419 kts 236°
2026-05-08 22:17 -22.02107 171.69694 40047 ft 419 kts 236°
2026-05-08 22:18 -22.05705 171.64750 40055 ft 419 kts 236°
2026-05-08 22:18 -22.09302 171.59807 40050 ft 419 kts 236°
2026-05-08 22:19 -22.12872 171.54897 40049 ft 419 kts 236°
2026-05-08 22:19 -22.16458 171.49953 40051 ft 418 kts 236°
2026-05-08 22:20 -22.20042 171.45006 40051 ft 419 kts 236°
2026-05-08 22:20 -22.23629 171.40054 40064 ft 418 kts 237°
2026-05-08 22:21 -22.27178 171.35151 40050 ft 416 kts 237°
2026-05-08 22:21 -22.30740 171.30226 40050 ft 416 kts 237°
2026-05-08 22:22 -22.34296 171.25301 40051 ft 416 kts 237°
2026-05-08 22:22 -22.37861 171.20361 40052 ft 417 kts 237°
2026-05-08 22:23 -22.41400 171.15453 40053 ft 417 kts 237°
2026-05-08 22:23 -22.44961 171.10509 40053 ft 417 kts 237°
2026-05-08 22:24 -22.48522 171.05562 40053 ft 417 kts 237°
2026-05-08 22:24 -22.52082 171.00610 40053 ft 417 kts 237°
2026-05-08 22:25 -22.55612 170.95697 40058 ft 416 kts 237°
2026-05-08 22:25 -22.59155 170.90760 40063 ft 415 kts 237°
2026-05-08 22:26 -22.62698 170.85819 40053 ft 416 kts 237°
2026-05-08 22:26 -22.66245 170.80866 40053 ft 416 kts 237°
2026-05-08 22:27 -22.69767 170.75944 40053 ft 416 kts 237°
2026-05-08 22:27 -22.73311 170.70986 40053 ft 416 kts 238°
2026-05-08 22:28 -22.76854 170.66027 40054 ft 416 kts 238°
2026-05-08 22:28 -22.80395 170.61064 40050 ft 416 kts 238°
2026-05-08 22:29 -22.83335 170.56941 40079 ft 416 kts 238°
2026-05-08 22:29 -22.87433 170.51192 40055 ft 413 kts 238°
2026-05-08 22:30 -22.90936 170.46267 40055 ft 412 kts 238°
2026-05-08 22:30 -22.94437 170.41341 40057 ft 412 kts 238°
2026-05-08 22:31 -22.97344 170.37246 40049 ft 412 kts 238°
2026-05-08 22:31 -23.01408 170.31518 40049 ft 412 kts 238°
2026-05-08 22:32 -23.04314 170.27419 40045 ft 412 kts 238°
2026-05-08 22:32 -23.08398 170.21653 40053 ft 412 kts 238°
2026-05-08 22:33 -23.11869 170.16747 40052 ft 412 kts 238°
2026-05-08 22:33 -23.15354 170.11820 40049 ft 410 kts 238°
2026-05-08 22:34 -23.18237 170.07737 40050 ft 409 kts 238°
2026-05-08 22:34 -23.21699 170.02830 40051 ft 409 kts 238°
2026-05-08 22:35 -23.25160 169.97918 40051 ft 409 kts 238°
2026-05-08 22:35 -23.28621 169.93003 40051 ft 409 kts 238°
2026-05-08 22:36 -23.32081 169.88086 40048 ft 409 kts 238°
2026-05-08 22:36 -23.35516 169.83199 40050 ft 409 kts 238°
2026-05-08 22:37 -23.38972 169.78277 40047 ft 409 kts 239°
2026-05-08 22:37 -23.42427 169.73353 40065 ft 409 kts 239°
2026-05-08 22:38 -23.45868 169.68447 40047 ft 407 kts 239°
2026-05-08 22:38 -23.49277 169.63576 40046 ft 407 kts 239°
2026-05-08 22:39 -23.52705 169.58674 40048 ft 407 kts 239°
2026-05-08 22:39 -23.56134 169.53766 40046 ft 407 kts 239°
2026-05-08 22:40 -23.59537 169.48891 40043 ft 407 kts 239°
2026-05-08 22:40 -23.62961 169.43983 40045 ft 407 kts 239°
2026-05-08 22:41 -23.66381 169.39074 40048 ft 407 kts 239°
2026-05-08 22:41 -23.69804 169.34156 40045 ft 407 kts 239°
2026-05-08 22:42 -23.73221 169.29246 40045 ft 405 kts 239°
2026-05-08 22:42 -23.76600 169.24382 40045 ft 405 kts 239°
2026-05-08 22:43 -23.79999 169.19484 40045 ft 405 kts 239°
2026-05-08 22:43 -23.83396 169.14583 40045 ft 405 kts 239°
2026-05-08 22:44 -23.86768 169.09715 40039 ft 405 kts 239°
2026-05-08 22:44 -23.90161 169.04812 40040 ft 405 kts 239°
2026-05-08 22:45 -23.93554 168.99905 40042 ft 405 kts 239°
2026-05-08 22:45 -23.96946 168.94993 40042 ft 405 kts 239°
2026-05-08 22:46 -24.00332 168.90088 40050 ft 403 kts 240°
2026-05-08 22:46 -24.03684 168.85227 40043 ft 402 kts 240°
2026-05-08 22:47 -24.07049 168.80340 40038 ft 402 kts 240°
2026-05-08 22:47 -24.10415 168.75446 40042 ft 402 kts 240°
2026-05-08 22:48 -24.13776 168.70554 40038 ft 402 kts 240°
2026-05-08 22:48 -24.17120 168.65683 40036 ft 404 kts 240°
2026-05-08 22:49 -24.20499 168.60755 40040 ft 405 kts 240°
2026-05-08 22:49 -24.25574 168.53349 40034 ft 405 kts 240°
2026-05-08 22:50 -24.28956 168.48407 40037 ft 405 kts 240°
2026-05-08 22:50 -24.32313 168.43496 40037 ft 405 kts 240°
2026-05-08 22:51 -24.35692 168.38548 40037 ft 405 kts 240°
2026-05-08 22:51 -24.39068 168.33599 40037 ft 405 kts 240°
2026-05-08 22:52 -24.42444 168.28645 40037 ft 405 kts 240°
2026-05-08 22:52 -24.45796 168.23721 40036 ft 405 kts 240°
2026-05-08 22:53 -24.49169 168.18761 40034 ft 405 kts 240°
2026-05-08 22:53 -24.52541 168.13798 40031 ft 405 kts 240°
2026-05-08 22:54 -24.55908 168.08838 40037 ft 404 kts 240°
2026-05-08 22:54 -24.59242 168.03922 40034 ft 403 kts 240°
2026-05-08 22:55 -24.62589 167.98979 40034 ft 403 kts 240°
2026-05-08 22:55 -24.65937 167.94030 40036 ft 403 kts 240°
2026-05-08 22:56 -24.69274 167.89094 40034 ft 402 kts 241°
2026-05-08 22:56 -24.72609 167.84156 40034 ft 402 kts 241°
2026-05-08 22:57 -24.75915 167.79254 40037 ft 402 kts 241°
2026-05-08 22:57 -24.79246 167.74312 40037 ft 402 kts 241°
2026-05-08 22:58 -24.82572 167.69372 40062 ft 402 kts 241°
2026-05-08 22:58 -24.85860 167.64482 40041 ft 398 kts 241°
2026-05-08 22:59 -24.89151 167.59579 40042 ft 398 kts 241°
2026-05-08 22:59 -24.92440 167.54672 40045 ft 398 kts 241°
2026-05-08 23:00 -24.95731 167.49761 40053 ft 398 kts 241°
2026-05-08 23:00 -24.98999 167.44879 40047 ft 398 kts 241°
2026-05-08 23:01 -25.02288 167.39961 40048 ft 398 kts 241°
2026-05-08 23:01 -25.05576 167.35039 40044 ft 398 kts 241°
2026-05-08 23:02 -25.08862 167.30117 40046 ft 398 kts 241°
2026-05-08 23:02 -25.12119 167.25233 40046 ft 397 kts 241°
2026-05-08 23:03 -25.15387 167.20328 40050 ft 396 kts 242°
2026-05-08 23:03 -25.18646 167.15428 40049 ft 396 kts 242°
2026-05-08 23:04 -25.21897 167.10536 40047 ft 396 kts 242°
2026-05-08 23:04 -25.25132 167.05664 40044 ft 396 kts 242°
2026-05-08 23:05 -25.28384 167.00761 40048 ft 395 kts 242°
2026-05-08 23:05 -25.31633 166.95857 40050 ft 395 kts 242°
2026-05-08 23:06 -25.34881 166.90950 40052 ft 395 kts 242°
2026-05-08 23:06 -25.38101 166.86081 40043 ft 394 kts 242°
2026-05-08 23:07 -25.41332 166.81192 40050 ft 393 kts 242°
2026-05-08 23:07 -25.44555 166.76306 40049 ft 393 kts 242°
2026-05-08 23:08 -25.47778 166.71416 40052 ft 393 kts 242°
2026-05-08 23:08 -25.50977 166.66557 40052 ft 393 kts 242°
2026-05-08 23:09 -25.54193 166.61668 40054 ft 393 kts 242°
2026-05-08 23:09 -25.57411 166.56772 40054 ft 393 kts 242°
2026-05-08 23:10 -25.60628 166.51871 40058 ft 393 kts 242°
2026-05-08 23:10 -25.63820 166.47004 40079 ft 393 kts 243°
2026-05-08 23:11 -25.67028 166.42108 40063 ft 392 kts 243°
2026-05-08 23:11 -25.70232 166.37212 40062 ft 392 kts 243°
2026-05-08 23:12 -25.73432 166.32315 40065 ft 392 kts 243°
2026-05-08 23:12 -25.76610 166.27449 40063 ft 392 kts 243°
2026-05-08 23:13 -25.79807 166.22548 40064 ft 392 kts 243°
2026-05-08 23:13 -25.83006 166.17639 40068 ft 392 kts 243°
2026-05-08 23:14 -25.86201 166.12731 40067 ft 392 kts 243°
2026-05-08 23:14 -25.89395 166.07819 40118 ft 393 kts 243°
2026-05-08 23:15 -25.92559 166.02952 40072 ft 390 kts 243°
2026-05-08 23:15 -25.95729 165.98068 40076 ft 389 kts 243°
2026-05-08 23:16 -25.98894 165.93183 40073 ft 389 kts 243°
2026-05-08 23:16 -26.02059 165.88293 40072 ft 389 kts 243°
2026-05-08 23:17 -26.05201 165.83435 40075 ft 389 kts 243°
2026-05-08 23:17 -26.08363 165.78542 40075 ft 389 kts 243°
2026-05-08 23:18 -26.11521 165.73649 40074 ft 389 kts 243°
2026-05-08 23:18 -26.14657 165.68786 40076 ft 389 kts 243°
2026-05-08 23:19 -26.17807 165.63898 40080 ft 388 kts 243°
2026-05-08 23:19 -26.20947 165.59020 40082 ft 387 kts 243°
2026-05-08 23:20 -26.24078 165.54146 40080 ft 387 kts 243°
2026-05-08 23:20 -26.27187 165.49303 40081 ft 387 kts 243°
2026-05-08 23:21 -26.30313 165.44427 40089 ft 387 kts 243°
2026-05-08 23:21 -26.33442 165.39545 40076 ft 387 kts 244°
2026-05-08 23:22 -26.36565 165.34665 40089 ft 387 kts 244°
2026-05-08 23:22 -26.39687 165.29781 40090 ft 387 kts 244°
2026-05-08 23:23 -26.42784 165.24935 40087 ft 385 kts 244°
2026-05-08 23:23 -26.45884 165.20078 40086 ft 384 kts 244°
2026-05-08 23:24 -26.48975 165.15225 40083 ft 384 kts 244°
2026-05-08 23:24 -26.52065 165.10370 40083 ft 383 kts 244°
2026-05-08 23:25 -26.55131 165.05548 40080 ft 384 kts 244°
2026-05-08 23:25 -26.58221 165.00682 40086 ft 384 kts 244°
2026-05-08 23:26 -26.61307 164.95819 40086 ft 384 kts 244°
2026-05-08 23:26 -26.64392 164.90953 40086 ft 384 kts 244°
2026-05-08 23:27 -26.67456 164.86117 40092 ft 383 kts 244°
2026-05-08 23:27 -26.70528 164.81262 40084 ft 382 kts 244°
2026-05-08 23:28 -26.73592 164.76411 40089 ft 382 kts 244°
2026-05-08 23:28 -26.76653 164.71560 40089 ft 382 kts 244°
2026-05-08 23:29 -26.79695 164.66734 40088 ft 382 kts 244°
2026-05-08 23:29 -26.82757 164.61872 40088 ft 382 kts 244°
2026-05-08 23:30 -26.85817 164.57009 40083 ft 382 kts 244°
2026-05-08 23:30 -26.88873 164.52146 40088 ft 382 kts 244°
2026-05-08 23:31 -26.91910 164.47309 40092 ft 382 kts 244°
2026-05-08 23:31 -26.94963 164.42439 40079 ft 382 kts 244°
2026-05-08 23:32 -26.98016 164.37567 40093 ft 382 kts 244°
2026-05-08 23:32 -27.01065 164.32692 40088 ft 382 kts 244°
2026-05-08 23:33 -27.04115 164.27812 40088 ft 382 kts 244°
2026-05-08 23:33 -27.07145 164.22960 40089 ft 382 kts 244°
2026-05-08 23:34 -27.10191 164.18077 40092 ft 382 kts 244°
2026-05-08 23:34 -27.13236 164.13190 40090 ft 382 kts 244°
2026-05-08 23:35 -27.16278 164.08301 40104 ft 381 kts 245°
2026-05-08 23:35 -27.19292 164.03454 40091 ft 381 kts 245°
2026-05-08 23:36 -27.22324 163.98571 40094 ft 381 kts 245°
2026-05-08 23:36 -27.25349 163.93694 40089 ft 380 kts 245°
2026-05-08 23:37 -27.28371 163.88815 40092 ft 380 kts 245°
2026-05-08 23:37 -27.31371 163.83968 40093 ft 380 kts 245°
2026-05-08 23:38 -27.34389 163.79086 40096 ft 380 kts 245°
2026-05-08 23:38 -27.37404 163.74203 40094 ft 380 kts 245°
2026-05-08 23:39 -27.40417 163.69318 40126 ft 380 kts 245°
2026-05-08 23:39 -27.43410 163.64461 40099 ft 380 kts 245°
2026-05-08 23:40 -27.46415 163.59579 40094 ft 379 kts 245°
2026-05-08 23:40 -27.49418 163.54695 40095 ft 379 kts 245°
2026-05-08 23:41 -27.52416 163.49812 40097 ft 379 kts 245°
2026-05-08 23:41 -27.55393 163.44959 40094 ft 379 kts 245°
2026-05-08 23:42 -27.58390 163.40068 40092 ft 379 kts 245°
2026-05-08 23:42 -27.61383 163.35177 40094 ft 379 kts 245°
2026-05-08 23:43 -27.64375 163.30283 40129 ft 379 kts 245°
2026-05-08 23:43 -27.67345 163.25419 40093 ft 379 kts 245°
2026-05-08 23:44 -27.70333 163.20523 40093 ft 379 kts 245°
2026-05-08 23:44 -27.73316 163.15627 40095 ft 379 kts 245°
2026-05-08 23:45 -27.76299 163.10725 40090 ft 379 kts 245°
2026-05-08 23:45 -27.79260 163.05856 40092 ft 379 kts 245°
2026-05-08 23:46 -27.82326 163.01005 40089 ft 384 kts 241°
2026-05-08 23:46 -27.86136 162.96623 40086 ft 395 kts 234°
2026-05-08 23:47 -27.90227 162.92450 40098 ft 397 kts 233°
2026-05-08 23:47 -27.94367 162.88308 40091 ft 397 kts 233°
2026-05-08 23:48 -27.98497 162.84158 40087 ft 397 kts 233°
2026-05-08 23:48 -28.02585 162.80026 40092 ft 397 kts 234°
2026-05-08 23:49 -28.06697 162.75856 40094 ft 397 kts 234°
2026-05-08 23:49 -28.10806 162.71684 40092 ft 397 kts 234°
2026-05-08 23:50 -28.14888 162.67535 40100 ft 397 kts 233°
2026-05-08 23:50 -28.19007 162.63343 40088 ft 399 kts 233°
2026-05-08 23:51 -28.23134 162.59143 40086 ft 399 kts 233°
2026-05-08 23:51 -28.27257 162.54944 40091 ft 398 kts 233°
2026-05-08 23:52 -28.31347 162.50771 40094 ft 398 kts 233°
2026-05-08 23:52 -28.35461 162.46569 40091 ft 398 kts 233°
2026-05-08 23:53 -28.39573 162.42362 40104 ft 398 kts 233°
2026-05-08 23:53 -28.43704 162.38129 40090 ft 401 kts 233°
2026-05-08 23:54 -28.47845 162.33885 40091 ft 401 kts 233°
2026-05-08 23:55 -28.54031 162.27541 40092 ft 401 kts 233°
2026-05-08 23:55 -28.58170 162.23289 40097 ft 401 kts 233°
2026-05-08 23:56 -28.62298 162.19043 40094 ft 401 kts 233°
2026-05-08 23:56 -28.66413 162.14801 40094 ft 403 kts 233°
2026-05-08 23:57 -28.70579 162.10503 40100 ft 404 kts 233°
2026-05-08 23:57 -28.74749 162.06201 40099 ft 405 kts 233°
2026-05-08 23:58 -28.78920 162.01893 40098 ft 404 kts 233°
2026-05-08 23:58 -28.83086 161.97584 40101 ft 404 kts 233°
2026-05-08 23:59 -28.87223 161.93298 40099 ft 404 kts 233°
2026-05-08 23:59 -28.91399 161.88964 40101 ft 408 kts 232°
2026-05-09 00:00 -28.95614 161.84585 40100 ft 410 kts 232°
2026-05-09 00:00 -28.99837 161.80200 40106 ft 410 kts 232°
2026-05-09 00:01 -29.04029 161.75842 40103 ft 410 kts 232°
2026-05-09 00:01 -29.08247 161.71448 40102 ft 410 kts 232°
2026-05-09 00:02 -29.12462 161.67052 40113 ft 410 kts 231°
2026-05-09 00:02 -29.16686 161.62639 40099 ft 412 kts 231°
2026-05-09 00:03 -29.20893 161.58242 40101 ft 412 kts 231°
2026-05-09 00:03 -29.25126 161.53815 40100 ft 412 kts 232°
2026-05-09 00:04 -29.29353 161.49387 40099 ft 412 kts 232°
2026-05-09 00:04 -29.33579 161.44953 40100 ft 412 kts 232°
2026-05-09 00:05 -29.37772 161.40549 40104 ft 412 kts 232°
2026-05-09 00:05 -29.41989 161.36116 40100 ft 411 kts 232°
2026-05-09 00:06 -29.46207 161.31675 40099 ft 411 kts 232°
2026-05-09 00:06 -29.50422 161.27233 40106 ft 411 kts 232°
2026-05-09 00:07 -29.54633 161.22790 40104 ft 411 kts 232°
2026-05-09 00:07 -29.58810 161.18380 40124 ft 410 kts 232°
2026-05-09 00:08 -29.63007 161.13938 40120 ft 411 kts 232°
2026-05-09 00:08 -29.67218 161.09476 40116 ft 412 kts 232°
2026-05-09 00:09 -29.71431 161.05010 40112 ft 412 kts 232°
2026-05-09 00:09 -29.75612 161.00574 40101 ft 412 kts 232°
2026-05-09 00:10 -29.79821 160.96102 40101 ft 412 kts 232°
2026-05-09 00:10 -29.84024 160.91628 40130 ft 412 kts 231°
2026-05-09 00:11 -29.88243 160.87130 40097 ft 414 kts 231°
2026-05-09 00:11 -29.92442 160.82656 40104 ft 413 kts 231°
2026-05-09 00:12 -29.96655 160.78159 40112 ft 413 kts 231°
2026-05-09 00:12 -30.00867 160.73655 40110 ft 413 kts 231°
2026-05-09 00:13 -30.05079 160.69146 40111 ft 413 kts 231°
2026-05-09 00:13 -30.09259 160.64661 40109 ft 414 kts 231°
2026-05-09 00:14 -30.13482 160.60130 40109 ft 415 kts 231°
2026-05-09 00:14 -30.17706 160.55594 40111 ft 414 kts 231°
2026-05-09 00:15 -30.21927 160.51056 40107 ft 414 kts 231°
2026-05-09 00:15 -30.26140 160.46520 40110 ft 414 kts 231°
2026-05-09 00:16 -30.30321 160.42010 40133 ft 414 kts 231°
2026-05-09 00:16 -30.34535 160.37456 40110 ft 415 kts 231°
2026-05-09 00:17 -30.38756 160.32895 40113 ft 415 kts 231°
2026-05-09 00:17 -30.42979 160.28326 40113 ft 415 kts 231°
2026-05-09 00:18 -30.47170 160.23785 40109 ft 415 kts 231°
2026-05-09 00:18 -30.51386 160.19211 40105 ft 415 kts 231°
2026-05-09 00:19 -30.55602 160.14628 40113 ft 416 kts 230°
2026-05-09 00:19 -30.59825 160.10035 40113 ft 416 kts 230°
2026-05-09 00:20 -30.64019 160.05469 40114 ft 416 kts 230°
2026-05-09 00:20 -30.68239 160.00868 40113 ft 416 kts 230°
2026-05-09 00:21 -30.72455 159.96265 40113 ft 416 kts 231°
2026-05-09 00:21 -30.76672 159.91654 40131 ft 417 kts 230°
2026-05-09 00:22 -30.80877 159.87049 40110 ft 419 kts 230°
2026-05-09 00:22 -30.85117 159.82404 40116 ft 419 kts 230°
2026-05-09 00:23 -30.89352 159.77758 40122 ft 418 kts 230°
2026-05-09 00:23 -30.93588 159.73104 40121 ft 418 kts 230°
2026-05-09 00:24 -30.97818 159.68449 40151 ft 418 kts 230°
2026-05-09 00:24 -31.02025 159.63811 40120 ft 420 kts 230°
2026-05-09 00:25 -31.06277 159.59122 40116 ft 421 kts 230°
2026-05-09 00:25 -31.10528 159.54429 40122 ft 421 kts 230°
2026-05-09 00:26 -31.14779 159.49731 40128 ft 421 kts 230°
2026-05-09 00:26 -31.18996 159.45061 40124 ft 421 kts 230°
2026-05-09 00:27 -31.23248 159.40344 40123 ft 422 kts 229°
2026-05-09 00:27 -31.27507 159.35615 40125 ft 423 kts 229°
2026-05-09 00:28 -31.31769 159.30879 40125 ft 423 kts 229°
2026-05-09 00:28 -31.35997 159.26173 40122 ft 422 kts 229°
2026-05-09 00:29 -31.40253 159.21430 40124 ft 422 kts 229°
2026-05-09 00:29 -31.44509 159.16678 40129 ft 424 kts 229°
2026-05-09 00:30 -31.48782 159.11902 40131 ft 425 kts 229°
2026-05-09 00:30 -31.52932 159.07000 40127 ft 421 kts 234°
2026-05-09 00:31 -31.56476 159.01623 40132 ft 419 kts 237°
2026-05-09 00:31 -31.59929 158.96117 40130 ft 419 kts 238°
2026-05-09 00:32 -31.63362 158.90588 40133 ft 419 kts 238°
2026-05-09 00:32 -31.66795 158.85063 40116 ft 419 kts 238°
2026-05-09 00:33 -31.70212 158.79572 40134 ft 420 kts 238°
2026-05-09 00:33 -31.73660 158.74029 40135 ft 420 kts 238°
2026-05-09 00:34 -31.77101 158.68489 40134 ft 420 kts 238°
2026-05-09 00:34 -31.80545 158.62935 40149 ft 420 kts 238°
2026-05-09 00:35 -31.83960 158.57417 40153 ft 421 kts 238°
2026-05-09 00:35 -31.87410 158.51838 40146 ft 422 kts 238°
2026-05-09 00:36 -31.90864 158.46243 40141 ft 422 kts 238°
2026-05-09 00:36 -31.94315 158.40645 40144 ft 423 kts 238°
2026-05-09 00:37 -31.97742 158.35079 40139 ft 423 kts 238°
2026-05-09 00:37 -32.01189 158.29471 40142 ft 422 kts 238°
2026-05-09 00:38 -32.04635 158.23857 40147 ft 424 kts 238°
2026-05-09 00:38 -32.08099 158.18202 40131 ft 426 kts 238°
2026-05-09 00:39 -32.11548 158.12567 40145 ft 427 kts 238°
2026-05-09 00:39 -32.15021 158.06884 40146 ft 427 kts 238°
2026-05-09 00:40 -32.18490 158.01199 40152 ft 427 kts 238°
2026-05-09 00:40 -32.21958 157.95506 40150 ft 427 kts 238°
2026-05-09 00:41 -32.27143 157.86976 40130 ft 429 kts 237°
2026-05-09 00:41 -32.30628 157.81238 40152 ft 430 kts 238°
2026-05-09 00:42 -32.34110 157.75493 40155 ft 430 kts 238°
2026-05-09 00:42 -32.37588 157.69744 40157 ft 430 kts 238°
2026-05-09 00:43 -32.41040 157.64030 40161 ft 430 kts 238°
2026-05-09 00:43 -32.44516 157.58266 40161 ft 431 kts 236°
2026-05-09 00:44 -32.48001 157.52481 40139 ft 432 kts 237°
2026-05-09 00:44 -32.51494 157.46672 40157 ft 434 kts 237°
2026-05-09 00:45 -32.54970 157.40883 40162 ft 434 kts 237°
2026-05-09 00:45 -32.58469 157.35050 40162 ft 434 kts 237°
2026-05-09 00:46 -32.61966 157.29206 40177 ft 434 kts 236°
2026-05-09 00:46 -32.65447 157.23382 40168 ft 432 kts 235°
2026-05-09 00:47 -32.68924 157.17555 40169 ft 433 kts 236°
2026-05-09 00:47 -32.72386 157.11746 40166 ft 434 kts 236°
2026-05-09 00:48 -32.75873 157.05885 40167 ft 434 kts 236°
2026-05-09 00:48 -32.79356 157.00021 40167 ft 434 kts 236°
2026-05-09 00:49 -32.82832 156.94159 40170 ft 434 kts 235°
2026-05-09 00:49 -32.86304 156.88297 40156 ft 433 kts 236°
2026-05-09 00:50 -32.89756 156.82457 40174 ft 435 kts 236°
2026-05-09 00:50 -32.93235 156.76564 40177 ft 435 kts 236°
2026-05-09 00:51 -32.96712 156.70664 40176 ft 435 kts 236°
2026-05-09 00:51 -33.00185 156.64761 40183 ft 435 kts 236°
2026-05-09 00:52 -33.03627 156.58903 40180 ft 434 kts 236°
2026-05-09 00:52 -33.07093 156.52994 40179 ft 436 kts 236°
2026-05-09 00:53 -33.10564 156.47066 40187 ft 436 kts 236°
2026-05-09 00:53 -33.14039 156.41123 40185 ft 437 kts 236°
2026-05-09 00:54 -33.17486 156.35219 40198 ft 437 kts 236°
2026-05-09 00:54 -33.20959 156.29259 40187 ft 437 kts 236°
2026-05-09 00:55 -33.24427 156.23300 40185 ft 437 kts 236°
2026-05-09 00:55 -33.27899 156.17323 40194 ft 438 kts 236°
2026-05-09 00:56 -33.31346 156.11381 40190 ft 438 kts 236°
2026-05-09 00:56 -33.34810 156.05397 40207 ft 438 kts 236°
2026-05-09 00:57 -33.38283 155.99390 40194 ft 439 kts 236°
2026-05-09 00:57 -33.41758 155.93370 40195 ft 440 kts 236°
2026-05-09 00:58 -33.45212 155.87377 40195 ft 440 kts 236°
2026-05-09 00:58 -33.48688 155.81334 40205 ft 441 kts 236°
2026-05-09 00:59 -33.52160 155.75289 40200 ft 441 kts 236°
2026-05-09 00:59 -33.55632 155.69233 40199 ft 441 kts 236°
2026-05-09 01:00 -33.59077 155.63217 40208 ft 440 kts 236°
2026-05-09 01:00 -33.62541 155.57156 40197 ft 441 kts 236°
2026-05-09 01:01 -33.66010 155.51075 40208 ft 442 kts 236°
2026-05-09 01:01 -33.69479 155.44985 40201 ft 442 kts 236°
2026-05-09 01:02 -33.72922 155.38931 40204 ft 442 kts 236°
2026-05-09 01:02 -33.76389 155.32824 40214 ft 442 kts 236°
2026-05-09 01:03 -33.79852 155.26715 40211 ft 442 kts 236°
2026-05-09 01:03 -33.83340 155.20623 40214 ft 443 kts 233°
2026-05-09 01:04 -33.87530 155.15195 40217 ft 443 kts 225°
2026-05-09 01:04 -33.92022 155.10154 40210 ft 446 kts 224°
2026-05-09 01:05 -33.96615 155.05118 40207 ft 447 kts 224°
2026-05-09 01:06 -34.03504 154.97533 40199 ft 447 kts 224°
2026-05-09 01:06 -34.08052 154.92495 40217 ft 447 kts 224°
2026-05-09 01:07 -34.12635 154.87405 40210 ft 449 kts 224°
2026-05-09 01:07 -34.17229 154.82295 40208 ft 449 kts 224°
2026-05-09 01:08 -34.21822 154.77181 40204 ft 449 kts 224°
2026-05-09 01:08 -34.26216 154.71901 40225 ft 448 kts 232°
2026-05-09 01:09 -34.29460 154.65493 40196 ft 449 kts 247°
2026-05-09 01:09 -34.30922 154.58835 40216 ft 451 kts 262°
2026-05-09 01:10 -34.30774 154.51237 40218 ft 454 kts 274°
2026-05-09 01:10 -34.29975 154.43694 40213 ft 456 kts 275°
2026-05-09 01:11 -34.29096 154.36105 40212 ft 456 kts 275°
2026-05-09 01:11 -34.28241 154.28514 40220 ft 455 kts 275°
2026-05-09 01:12 -34.27405 154.20925 40227 ft 455 kts 275°
2026-05-09 01:12 -34.26572 154.13338 40225 ft 455 kts 275°
2026-05-09 01:13 -34.25740 154.05804 40224 ft 455 kts 275°
2026-05-09 01:13 -34.24896 153.98217 40237 ft 456 kts 275°
2026-05-09 01:14 -34.24045 153.90610 40236 ft 457 kts 275°
2026-05-09 01:14 -34.23188 153.83006 40240 ft 457 kts 275°
2026-05-09 01:15 -34.22331 153.75460 40242 ft 457 kts 275°
2026-05-09 01:15 -34.21462 153.67843 40239 ft 458 kts 275°
2026-05-09 01:16 -34.20588 153.60226 40243 ft 458 kts 275°
2026-05-09 01:16 -34.19710 153.52613 40243 ft 458 kts 275°
2026-05-09 01:17 -34.18835 153.45080 39702 ft 452 kts 275°
2026-05-09 01:17 -34.18395 153.41309 38932 ft 456 kts 275°
2026-05-09 01:17 -34.17951 153.37491 37895 ft 462 kts 275°
2026-05-09 01:17 -34.17501 153.33622 36830 ft 469 kts 275°
2026-05-09 01:18 -34.17042 153.29691 35775 ft 477 kts 275°
2026-05-09 01:18 -34.16574 153.25698 34728 ft 485 kts 275°
2026-05-09 01:18 -34.16095 153.21638 33661 ft 492 kts 275°
2026-05-09 01:18 -34.15609 153.17537 32712 ft 494 kts 275°
2026-05-09 01:19 -34.15120 153.13434 31905 ft 493 kts 275°
2026-05-09 01:19 -34.14637 153.09397 31152 ft 492 kts 275°
2026-05-09 01:19 -34.14149 153.05330 30584 ft 486 kts 276°
2026-05-09 01:19 -34.13667 153.01314 29994 ft 480 kts 276°
2026-05-09 01:20 -34.13188 152.97352 29358 ft 475 kts 275°
2026-05-09 01:20 -34.12712 152.93430 28745 ft 469 kts 276°
2026-05-09 01:20 -34.12241 152.89558 28177 ft 464 kts 275°
2026-05-09 01:20 -34.11778 152.85729 27581 ft 458 kts 275°
2026-05-09 01:21 -34.11319 152.81946 27017 ft 453 kts 276°
2026-05-09 01:21 -34.10871 152.78251 26384 ft 450 kts 275°
2026-05-09 01:21 -34.10419 152.74535 25839 ft 445 kts 276°
2026-05-09 01:21 -34.09972 152.70863 25250 ft 441 kts 276°
2026-05-09 01:22 -34.09525 152.67223 24697 ft 436 kts 275°
2026-05-09 01:22 -34.09082 152.63623 24200 ft 431 kts 276°
2026-05-09 01:22 -34.08643 152.60066 23580 ft 427 kts 276°
2026-05-09 01:22 -34.08208 152.56542 22994 ft 421 kts 275°
2026-05-09 01:23 -34.07829 152.53093 22689 ft 409 kts 273°
2026-05-09 01:23 -34.07529 152.49738 22408 ft 397 kts 273°
2026-05-09 01:23 -34.07243 152.46516 22140 ft 386 kts 273°
2026-05-09 01:23 -34.06956 152.43339 21758 ft 378 kts 273°
2026-05-09 01:24 -34.06667 152.40201 21268 ft 374 kts 273°
2026-05-09 01:24 -34.06379 152.37097 20769 ft 371 kts 273°
2026-05-09 01:24 -34.06089 152.34021 20296 ft 367 kts 273°
2026-05-09 01:24 -34.05801 152.30973 19809 ft 364 kts 273°
2026-05-09 01:25 -34.05514 152.27954 19319 ft 361 kts 273°
2026-05-09 01:25 -34.05325 152.25968 19001 ft 359 kts 273°
2026-05-09 01:25 -34.04948 152.22032 18363 ft 355 kts 273°
2026-05-09 01:25 -34.04665 152.19081 17787 ft 353 kts 273°
2026-05-09 01:26 -34.04383 152.16144 17228 ft 351 kts 273°
2026-05-09 01:26 -34.04101 152.13227 16699 ft 349 kts 273°
2026-05-09 01:26 -34.03821 152.10326 16120 ft 348 kts 273°
2026-05-09 01:26 -34.03636 152.08415 15770 ft 347 kts 273°
2026-05-09 01:27 -34.03356 152.05534 15279 ft 344 kts 273°
2026-05-09 01:27 -34.03071 152.02679 14817 ft 341 kts 273°
2026-05-09 01:27 -34.02698 151.98985 14358 ft 332 kts 273°
2026-05-09 01:27 -34.02420 151.96238 13895 ft 329 kts 273°
2026-05-09 01:28 -34.02145 151.93517 13408 ft 325 kts 273°
2026-05-09 01:28 -34.01965 151.91730 13081 ft 323 kts 274°
2026-05-09 01:28 -34.01694 151.89056 12615 ft 320 kts 273°
2026-05-09 01:28 -34.01426 151.86407 12123 ft 317 kts 274°
2026-05-09 01:29 -34.01160 151.83771 11596 ft 316 kts 274°
2026-05-09 01:29 -34.00891 151.81152 11146 ft 313 kts 274°
2026-05-09 01:29 -34.00542 151.77727 10519 ft 310 kts 274°
2026-05-09 01:29 -34.00284 151.75163 10055 ft 306 kts 274°
2026-05-09 01:30 -34.00027 151.72682 9504 ft 292 kts 274°
2026-05-09 01:30 -33.99863 151.71097 9201 ft 281 kts 275°
2026-05-09 01:30 -33.99621 151.68759 9012 ft 283 kts 274°
2026-05-09 01:30 -33.99377 151.66398 8565 ft 282 kts 275°
2026-05-09 01:31 -33.99132 151.64070 8225 ft 277 kts 273°
2026-05-09 01:31 -33.98822 151.61020 7544 ft 278 kts 276°
2026-05-09 01:31 -33.98662 151.59455 7253 ft 279 kts 276°
2026-05-09 01:31 -33.98345 151.56426 7008 ft 271 kts 276°
2026-05-09 01:32 -33.98185 151.54907 6998 ft 271 kts 276°
2026-05-09 01:32 -33.97953 151.52681 6839 ft 269 kts 276°
2026-05-09 01:32 -33.97722 151.50459 6606 ft 267 kts 276°
2026-05-09 01:32 -33.97491 151.48245 6349 ft 266 kts 276°
2026-05-09 01:33 -33.97260 151.46034 6101 ft 266 kts 276°
2026-05-09 01:33 -33.97027 151.43820 5999 ft 266 kts 276°
2026-05-09 01:33 -33.96721 151.40892 5996 ft 266 kts 276°
2026-05-09 01:33 -33.96487 151.38678 5991 ft 266 kts 276°
2026-05-09 01:34 -33.96329 151.37188 5990 ft 266 kts 276°
2026-05-09 01:34 -33.96100 151.35004 5993 ft 266 kts 276°
2026-05-09 01:34 -33.95877 151.32795 5993 ft 266 kts 277°
2026-05-09 01:34 -33.95654 151.30583 5992 ft 266 kts 277°
2026-05-09 01:35 -33.95426 151.28367 5994 ft 266 kts 277°
2026-05-09 01:35 -33.95198 151.26155 5996 ft 266 kts 277°
2026-05-09 01:35 -33.94970 151.23942 5994 ft 266 kts 277°
2026-05-09 01:35 -33.94730 151.21743 5990 ft 266 kts 279°
2026-05-09 01:36 -33.94145 151.19655 5992 ft 267 kts 300°
2026-05-09 01:36 -33.92887 151.18039 5998 ft 266 kts 324°
2026-05-09 01:36 -33.91430 151.16661 5984 ft 267 kts 314°
2026-05-09 01:36 -33.90489 151.14764 5994 ft 266 kts 287°
2026-05-09 01:37 -33.90132 151.12581 5998 ft 266 kts 277°
2026-05-09 01:37 -33.89905 151.10371 5992 ft 266 kts 276°
2026-05-09 01:37 -33.89685 151.08147 5993 ft 267 kts 276°
2026-05-09 01:37 -33.89467 151.05944 5994 ft 266 kts 276°
2026-05-09 01:38 -33.89045 151.03785 5982 ft 266 kts 295°
2026-05-09 01:38 -33.87936 151.02093 5993 ft 261 kts 322°
2026-05-09 01:38 -33.86299 151.01197 6001 ft 260 kts 347°
2026-05-09 01:38 -33.84561 151.00837 5986 ft 246 kts 352°
2026-05-09 01:39 -33.82895 151.00577 5990 ft 240 kts 353°
2026-05-09 01:39 -33.81239 151.00326 5844 ft 238 kts 353°
2026-05-09 01:39 -33.79615 151.00079 5597 ft 233 kts 353°
2026-05-09 01:39 -33.78020 150.99836 5344 ft 229 kts 353°
2026-05-09 01:40 -33.76457 150.99600 5090 ft 225 kts 353°
2026-05-09 01:40 -33.74933 150.99780 4827 ft 220 kts 22°
2026-05-09 01:40 -33.73756 151.00882 4561 ft 215 kts 56°
2026-05-09 01:40 -33.73224 151.02506 4305 ft 211 kts 78°
2026-05-09 01:41 -33.72971 151.04230 4062 ft 208 kts 82°
2026-05-09 01:41 -33.72751 151.05938 3815 ft 205 kts 82°
2026-05-09 01:41 -33.72546 151.07624 3568 ft 203 kts 86°
2026-05-09 01:41 -33.72810 151.09236 3299 ft 196 kts 122°
2026-05-09 01:42 -33.73737 151.10363 3059 ft 188 kts 148°
2026-05-09 01:42 -33.74820 151.11164 2984 ft 181 kts 152°
2026-05-09 01:42 -33.75907 151.11915 2992 ft 181 kts 153°
2026-05-09 01:42 -33.77003 151.12660 2988 ft 181 kts 153°
2026-05-09 01:43 -33.78140 151.13251 3010 ft 181 kts 165°
2026-05-09 01:43 -33.79350 151.13608 2868 ft 178 kts 168°
2026-05-09 01:43 -33.80550 151.13933 2600 ft 179 kts 168°
2026-05-09 01:43 -33.81756 151.14250 2338 ft 175 kts 170°
2026-05-09 01:44 -33.82931 151.14556 2095 ft 171 kts 169°
2026-05-09 01:44 -33.84088 151.14858 1852 ft 170 kts 169°
2026-05-09 01:44 -33.85220 151.15153 1631 ft 164 kts 170°
2026-05-09 01:44 -33.86310 151.15436 1405 ft 157 kts 170°
2026-05-09 01:45 -33.87330 151.15701 1197 ft 145 kts 170°
2026-05-09 01:45 -33.88278 151.15947 1013 ft 137 kts 170°
2026-05-09 01:45 -33.89184 151.16183 788 ft 128 kts 170°
2026-05-09 01:45 -33.90045 151.16415 638 ft 127 kts 169°
2026-05-09 01:46 -33.90908 151.16632 468 ft 128 kts 169°
2026-05-09 01:46 -33.91768 151.16855 313 ft 124 kts 168°
2026-05-09 01:46 -33.92607 151.17076 154 ft 123 kts 168°
2026-05-09 01:46 -33.93451 151.17287 41 ft 123 kts 165°
2026-05-09 01:47 -33.94196 151.17485 36 ft 88 kts 167°
2026-05-09 01:47 -33.94623 151.17596 36 ft 37 kts 168°
2026-05-09 01:47 -33.94833 151.17643 35 ft 30 kts 174°
2026-05-09 01:47 -33.95023 151.17642 34 ft 26 kts 185°
2026-05-09 01:48 -33.95112 151.17619 34 ft 10 kts 198°
2026-05-09 01:48 -33.95144 151.17559 35 ft 8 kts 279°
2026-05-09 01:48 -33.95094 151.17517 36 ft 11 kts 344°
2026-05-09 01:48 -33.95010 151.17495 36 ft 14 kts 348°
2026-05-09 01:49 -33.94899 151.17466 36 ft 18 kts 348°
2026-05-09 01:49 -33.94768 151.17432 36 ft 21 kts 348°
2026-05-09 01:49 -33.94648 151.17401 37 ft 18 kts 348°
2026-05-09 01:49 -33.94515 151.17366 37 ft 21 kts 348°
2026-05-09 01:50 -33.94359 151.17326 37 ft 25 kts 348°
2026-05-09 01:50 -33.94190 151.17282 35 ft 26 kts 348°
2026-05-09 01:50 -33.94036 151.17241 35 ft 17 kts 347°
2026-05-09 01:50 -33.93981 151.17178 36 ft 12 kts 268°
2026-05-09 01:51 -33.94007 151.17071 36 ft 15 kts 253°
2026-05-09 01:51 -33.94039 151.16940 36 ft 18 kts 253°
2026-05-09 01:51 -33.94071 151.16800 36 ft 15 kts 254°
2026-05-09 01:51 -33.94096 151.16695 36 ft 12 kts 253°
2026-05-09 01:52 -33.94091 151.16647 36 ft 5 kts 311°
2026-05-09 01:52 -33.94053 151.16630 36 ft 5 kts 342°
2026-05-09 01:52 -33.94023 151.16619 36 ft 3 kts 344°
2026-05-09 01:52 -33.94012 151.16616 36 ft 0 kts 344°